Погода в Холкине

Россия / Свердловская область     57°03′49″N   63°00′37″E
темп.,
°C
ветер,
м/с
пор.,
м/с
влажн.,
%
обл.,
%
осадки,
мм/ч
давл.,
гПа
погр.,
м
18 августа, чт
чт1823:00+8с33785 0.0 102344
02:00+6с36883 0.0 102488
05:00+4с3690100 0.0 1025107
08:00+9ссв466265 0.0 1026386
11:00+13с564597 0.0 10261580
14:00+15ссв5639100 0.0 10252168
17:00+13с6649100 0.0 10261451
20:00+10ссв466399 0.0 1027620
19 августа, пт
пт1923:00+8с3776100 0.0 1029332
02:00+6с33927 0.0 102937
05:00+9сз237799 0.0 103096
08:00+11сз3565100 0.0 1030321
11:00+14ссз466087 0.0 1030660
14:00+20сз574355 0.0 10281724
17:00+21сз68395 0.0 10261748
20:00+16сз3458100 0.0 102648
20 августа, сб
сб2023:00+13сз4970100 0.0 1025129
02:00+13сз41073100 0.0 1025162
05:00+12ссз48865 0.0 1025126
08:00+17ссз597416 0.0 1024292
11:00+24ссз685484 0.0 1023952
14:00+26с81046100 0.0 10222165
17:00+20с71181100 1.2 1023827
20:00+17ссв5109687 1.6 1024575
21 августа, вс
вс2123:00+12с389589 1.6 1026170
02:00+11с369424 0.0 1026111
05:00+10ссв369516 0.0 102795
08:00+13ссв4789100 0.0 1028307
11:00+16св465981 0.0 1028834
14:00+20ссв453724 0.0 10281438
17:00+21ссв453740 0.0 10271577
20:00+15всв11575 0.0 102811
22 августа, пн
пн2223:00+12св11695 0.0 102810
02:00+11с11771 0.0 102910
05:00+10ссв11805 0.0 103010
08:00+15св11585 0.0 1030173
11:00+20всв23385 0.0 1031935
14:00+23всв232934 0.0 10301421
17:00+23всв22305 0.0 10301385
20:00+17в22514 0.0 103013